TimePDT,TemperatureF,Dew PointF,Humidity,Sea Level PressureIn,VisibilityMPH,Wind Direction,Wind SpeedMPH,Gust SpeedMPH,PrecipitationIn,Events,Conditions,WindDirDegrees,DateUTC
12:53 AM,68.0,37.9,33,29.87,10.0,South,3.5,-,N/A,,Clear,190,2012-09-23 07:53:00
1:53 AM,63.0,39.0,41,29.87,10.0,Calm,Calm,-,N/A,,Clear,0,2012-09-23 08:53:00
2:53 AM,66.9,36.0,32,29.86,10.0,Calm,Calm,-,N/A,,Clear,0,2012-09-23 09:53:00
3:53 AM,59.0,36.0,42,29.86,10.0,Calm,Calm,-,N/A,,Clear,0,2012-09-23 10:53:00
4:53 AM,57.0,37.9,49,29.88,10.0,Calm,Calm,-,N/A,,Clear,0,2012-09-23 11:53:00
5:53 AM,57.0,39.0,51,29.89,10.0,Calm,Calm,-,N/A,,Clear,0,2012-09-23 12:53:00
6:53 AM,60.1,39.9,47,29.91,10.0,WSW,4.6,-,N/A,,Clear,250,2012-09-23 13:53:00
7:53 AM,66.0,39.0,37,29.92,10.0,Calm,Calm,-,N/A,,Clear,0,2012-09-23 14:53:00
8:53 AM,71.1,43.0,36,29.94,10.0,Calm,Calm,-,N/A,,Clear,0,2012-09-23 15:53:00
9:53 AM,77.0,41.0,28,29.94,10.0,South,3.5,-,N/A,,Clear,180,2012-09-23 16:53:00
10:53 AM,80.1,45.0,29,29.93,10.0,Calm,Calm,-,N/A,,Clear,0,2012-09-23 17:53:00
11:53 AM,86.0,43.0,22,29.93,10.0,SSW,6.9,-,N/A,,Clear,200,2012-09-23 18:53:00
12:53 PM,88.0,39.0,18,29.92,10.0,South,8.1,-,N/A,,Clear,180,2012-09-23 19:53:00
1:53 PM,90.0,37.9,16,29.91,10.0,SSW,8.1,-,N/A,,Clear,200,2012-09-23 20:53:00
2:53 PM,91.9,33.1,12,29.88,10.0,South,8.1,-,N/A,,Clear,180,2012-09-23 21:53:00
3:53 PM,91.0,34.0,13,29.87,10.0,SSW,12.7,18.4,N/A,,Clear,200,2012-09-23 22:53:00
4:53 PM,89.1,36.0,15,29.87,10.0,SSW,11.5,-,N/A,,Clear,210,2012-09-23 23:53:00
5:53 PM,87.1,41.0,20,29.86,10.0,SW,12.7,-,N/A,,Clear,220,2012-09-24 00:53:00
6:53 PM,81.0,42.1,25,29.86,10.0,SW,11.5,-,N/A,,Clear,230,2012-09-24 01:53:00
7:53 PM,80.1,30.9,17,29.86,10.0,SW,11.5,-,N/A,,Clear,220,2012-09-24 02:53:00
8:53 PM,73.9,35.1,24,29.86,10.0,South,9.2,-,N/A,,Clear,190,2012-09-24 03:53:00
9:53 PM,71.1,39.0,31,29.86,10.0,South,8.1,-,N/A,,Clear,190,2012-09-24 04:53:00
10:53 PM,69.1,43.0,39,29.86,10.0,Variable,4.6,-,N/A,,Clear,0,2012-09-24 05:53:00
11:53 PM,66.0,46.0,48,29.84,10.0,SSW,8.1,-,N/A,,Clear,210,2012-09-24 06:53:00